Location: *
(45.8589°N, 4.7139°E)
Time: 15:56:55
(UTC+00:00)

Cosmos 1763 Rocket - Pass Details

Date: 09 April 2020
Orbit: 734 x 779 km, 74.0° (Epoch: 28 May)

Event Time Altitude Azimuth Distance (km) Brightness Sun altitude
Rises 21:23:59 0° 331° (NNW) 3,221 7.9 -27.9°
Reaches altitude 10° 21:26:29 10° 324° (NW) 2,284 6.9 -28.1°
Maximum altitude 21:31:14 38° 257° (WSW) 1,124 4.5 -28.7°
Enters shadow 21:31:29 38° 250° (WSW) 1,128 4.4 -28.7°
